Weather History for Pascagoula, MS

Change the Weather History Date:

Tuesday, March 25, 2014

  Actual Average Record
Temperature  
Mean Temperature 56 °F -  
Max Temperature 66 °F 70 °F 83 °F (1991)
Min Temperature 46 °F 51 °F 30 °F (2006)
Degree Days  
Heating Degree Days 9    
Growing Degree Days 6 (Base 50)    
Moisture  
Dew Point 30 °F    
Average Humidity 43    
Maximum Humidity 90    
Minimum Humidity 19    
Precipitation  
Precipitation 0.00 in - - ()
Sea Level Pressure  
Sea Level Pressure 30.14 in    
Wind  
Wind Speed 9 mph (NNW)    
Max Wind Speed 22 mph    
Max Gust Speed 29 mph    
Visibility 10 miles    
Events      
Averages and records for this station are not official NWS values.
T = Trace of Precipitation, MM = Missing Value Source: NWS Daily Summary

Daily Weather History Graph

Daily Weather History Graph

Search for Another Location

Airport:

Trip Planner

Search our weather history database for the weather conditions in past years. The results will help you decide how hot, cold, wet, or windy it might be!

Date:

Astronomy

Mar. 25, 2014 Rise Set
Actual Time 6:51 AM CDT 7:08 PM CDT
Civil Twilight 6:27 AM CDT 7:32 PM CDT
Nautical Twilight 5:59 AM CDT 8:00 PM CDT
Astronomical Twilight 5:31 AM CDT 8:29 PM CDT
Moon 2:52 AM CDT (3/25) 1:58 PM CDT (3/25)
Length of Visible Light 13h 05m
Length of Day
12h 16m
Waning Crescent, 32% of the Moon is Illuminated
Mar 25
Waning Crescent
Mar 30
New
Apr 7
First Quarter
Apr 15
Full
Apr 22
Last Quarter

Hourly Weather History & Observations

Time (CDT) Temp. Windchill Dew Point Humidity Pressure Visibility Wind Dir Wind Speed Gust Speed Precip Events Conditions
12:53 AM 51.1 °F - 48.0 °F 89% 30.05 in 10.0 mi Calm Calm - N/A   Clear
1:53 AM 48.9 °F - 46.0 °F 90% 30.04 in 10.0 mi WNW 3.5 mph - N/A   Clear
2:53 AM 51.1 °F - 44.1 °F 77% 30.02 in 10.0 mi NNW 4.6 mph - N/A   Clear
3:53 AM 51.1 °F - 41.0 °F 68% 30.03 in 10.0 mi NNW 5.8 mph - N/A   Clear
4:53 AM 48.9 °F - 37.9 °F 66% 30.04 in 10.0 mi North 11.5 mph - N/A   Clear
5:53 AM 46.9 °F - 36.0 °F 66% 30.06 in 10.0 mi North 9.2 mph - N/A   Clear
6:53 AM 46.0 °F 42.5 °F 34.0 °F 63% 30.10 in 10.0 mi NNW 6.9 mph - N/A   Clear
7:53 AM 48.0 °F - 33.1 °F 56% 30.13 in 10.0 mi North 11.5 mph - N/A   Clear
8:53 AM 52.0 °F - 32.0 °F 47% 30.15 in 10.0 mi North 10.4 mph - N/A   Clear
9:53 AM 57.9 °F - 27.0 °F 31% 30.15 in 10.0 mi North 19.6 mph 25.3 mph N/A   Clear
10:53 AM 61.0 °F - 30.0 °F 31% 30.17 in 10.0 mi North 21.9 mph 28.8 mph N/A   Clear
11:53 AM 62.1 °F - 28.9 °F 29% 30.16 in 10.0 mi North 19.6 mph 28.8 mph N/A   Clear
12:53 PM 64.0 °F - 25.0 °F 23% 30.15 in 10.0 mi NNW 15.0 mph 28.8 mph N/A   Clear
1:53 PM 66.0 °F - 25.0 °F 21% 30.14 in 10.0 mi NNW 12.7 mph 26.5 mph N/A   Clear
2:53 PM 66.0 °F - 25.0 °F 21% 30.12 in 10.0 mi NNW 16.1 mph 25.3 mph N/A   Clear
3:53 PM 64.0 °F - 24.1 °F 22% 30.12 in 10.0 mi NNW 16.1 mph 27.6 mph N/A   Clear
4:53 PM 63.0 °F - 19.9 °F 19% 30.12 in 10.0 mi NNW 10.4 mph 27.6 mph N/A   Clear
5:53 PM 61.0 °F - 21.0 °F 21% 30.14 in 10.0 mi NNW 12.7 mph 23.0 mph N/A   Clear
6:53 PM 57.0 °F - 19.9 °F 24% 30.16 in 10.0 mi NNW 12.7 mph 19.6 mph N/A   Clear
7:53 PM 55.0 °F - 21.9 °F 28% 30.19 in 10.0 mi NNW 8.1 mph - N/A   Clear
8:53 PM 53.1 °F - 23.0 °F 31% 30.23 in 10.0 mi NNW 8.1 mph - N/A   Clear
9:53 PM 51.1 °F - 24.1 °F 35% 30.26 in 10.0 mi NNW 8.1 mph 17.3 mph N/A   Clear
10:53 PM 50.0 °F - 23.0 °F 35% 30.28 in 10.0 mi North 12.7 mph - N/A   Clear
11:53 PM 46.9 °F - 24.1 °F 41% 30.29 in 10.0 mi North 9.2 mph - N/A   Clear